Location: Newark
(53.3333°N, 83.7500°E)
Time: 04:30:40
(UTC+00:00)

Vanguard 1 - All Passes

Search period start: 19 November 2019 00:00
Search period end: 29 November 2019 00:00
Orbit: 652 x 3831 km, 34.2° (Epoch: 18 November)

Date Brightness Start Highest point End Pass type
(mag) Time Alt. Az. Time Alt. Az. Time Alt. Az.
19 Nov - 05:48:54 10° SSW 05:51:42 12° S 05:54:05 10° SSE daylight
20 Nov - 03:50:17 10° S 03:52:50 11° SSE 03:55:05 10° SSE daylight
20 Nov - 06:09:03 10° SSW 06:12:17 13° S 06:15:00 10° SSE daylight
21 Nov - 04:08:58 10° SSW 04:13:33 14° S 04:17:11 10° SE daylight
21 Nov - 06:29:37 10° SW 06:32:52 13° S 06:35:34 10° SSE daylight
22 Nov - 04:28:38 10° SSW 04:34:14 16° S 04:38:28 10° SE daylight
22 Nov - 06:50:32 10° SW 06:53:22 13° SSW 06:55:49 10° S daylight
23 Nov - 02:29:33 10° S 02:34:53 14° SSE 02:39:11 10° SE daylight
23 Nov - 04:48:46 10° SW 04:54:53 18° S 04:59:23 10° SE daylight
23 Nov - 07:11:56 10° SW 07:13:50 11° SSW 07:15:33 10° S daylight
24 Nov - 02:48:18 10° SSW 02:55:38 17° SSE 03:01:03 10° SE daylight
24 Nov - 05:09:12 10° SW 05:15:31 19° S 05:20:05 10° SE daylight
25 Nov - 00:52:25 10° SSE 00:55:41 11° SSE 00:58:38 10° SE visible
25 Nov - 03:07:51 10° SSW 03:16:22 20° S 03:22:21 10° SE daylight
25 Nov - 05:29:54 10° SW 05:36:05 19° SSW 05:40:35 10° SSE daylight
26 Nov - 01:08:53 10° S 01:16:26 15° SSE 01:22:22 10° SE visible
26 Nov - 03:27:52 10° SW 03:37:05 22° S 03:43:20 10° SE daylight
26 Nov - 05:50:50 10° SW 05:56:35 18° SSW 06:00:52 10° SSE daylight
27 Nov - 01:27:21 10° SSW 01:37:11 19° SSE 01:44:20 10° ESE visible
27 Nov - 03:48:12 10° SW 03:57:46 24° S 04:04:06 10° SE daylight
27 Nov - 06:12:00 10° WSW 06:17:02 16° SSW 06:20:54 10° S daylight
27 Nov - 23:32:55 10° SSE 23:36:46 11° SE 23:40:16 10° SE visible
28 Nov - 01:46:37 10° SSW 01:57:57 23° SSE 02:05:44 10° ESE daylight
28 Nov - 04:08:47 10° SW 04:18:25 25° S 04:24:44 10° SE daylight
28 Nov - 06:33:33 10° WSW 06:37:24 13° SSW 06:40:32 10° S daylight
